Regional Weather Roundup
Issued by NWS

Home | Current Version | Previous Version | Graphics & Text | Print | Product List | Glossary Off
Versions: 1 2 3 4 5 6 7 8 9 10 11 12 13 14 15 16 17 18 19 20 21 22 23 24 25 26 27 28 29 30 31 32 33 34 35 36 37 38 39 40 41 42 43 44 45 46 47 48 49 50

000
ASUS43 KDMX 010508
RWRIA

WEATHER ROUNDUP FOR IOWA
NATIONAL WEATHER SERVICE DES MOINES IA
1200 AM CDT SAT OCT 01 2016

NOTE: "FAIR" INDICATES FEW OR NO CLOUDS BELOW 12,000 FEET WITH NO
SIGNIFICANT WEATHER AND/OR OBSTRUCTIONS TO VISIBILITY.

* - THESE STATIONS ARE NOT NWS STATIONS...THUS NOT UNDER NWS
QUALITY CONTROL.  THEY ALSO DO NOT REPORT WEATHER SUCH
AS PRECIPITATION OR FOG.

IAZ001>003-012>014-020>022-031>034-043>046-010600-
   NORTHWEST IOWA

CITY           SKY/WX    TMP DP  RH WIND       PRES   REMARKS
CARROLL *      CLOUDY    61  55  82 E5        30.16S
CHEROKEE *     CLOUDY    56  56  97 CALM      30.18R
DENISON *      CLOUDY    55  54  94 CALM      30.15S
LE MARS *      CLOUDY    52  50  93 CALM      30.18S
SHELDON *      CLOUDY    54  52  94 CALM      30.17S
SIOUX CITY     PTCLDY    52  49  89 CALM      30.17R
SPENCER        PTCLDY    58  54  86 SE6       30.18S
STORM LAKE *   MOCLDY    57  55  94 SE3       30.18S
$$

IAZ055>058-069>071-079>083-090>094-010600-
   SOUTHWEST IOWA

CITY           SKY/WX    TMP DP  RH WIND       PRES   REMARKS
ATLANTIC *     CLOUDY    55  54  94 CALM      30.16S
AUDUBON *      CLOUDY    55  52  88 CALM      30.17F
CLARINDA *       N/A     57  55  94 MISG      30.16F
COUNCIL BLFS * CLOUDY    57  54  88 CALM      30.17R
CRESTON *      CLOUDY    59  55  88 NE5       30.16F
HARLAN  *      CLOUDY    57  55  94 CALM      30.20S
LAMONI         CLOUDY    60  56  86 NE5       30.14F
RED OAK *      CLOUDY    52  50  93 CALM      30.16S FOG
SHENANDOAH *   CLOUDY    52  52 100 NE5       30.16S
$$

IAZ047>049-059>061-072>074-084-010600-
   CENTRAL IOWA

CITY           SKY/WX    TMP DP  RH WIND       PRES   REMARKS
AMES           CLOUDY    60  58  92 NE7       30.16S
ANKENY *         N/A    N/A N/A N/A MISG        N/A
BOONE *        CLOUDY    59  57  94 NE5       30.16S FOG
CHARITON *       N/A     59  57  94 N5        30.13F
DES MOINES     CLOUDY    62  56  80 NE6       30.14F
GRINNELL*      CLOUDY    59  56  90 N5        30.15S
KNOXVILLE *    CLOUDY    61  55  82 N8        30.12F
MARSHALLTOWN   CLOUDY    58  58 100 N3        30.14F
NEWTON *       CLOUDY    59  57  94 N7        30.13F
PELLA *        CLOUDY    59  57  92 N3        30.14F
PERRY *        CLOUDY    60  58  92 NE6       30.16F
$$

IAZ004>006-015-016-023>025-035-036-010600-
   NORTH CENTRAL IOWA

CITY           SKY/WX    TMP DP  RH WIND       PRES   REMARKS
ALGONA *       CLOUDY    61  55  82 CALM      30.18F
CLARION *      CLOUDY    59  57  94 CALM      30.17F
ESTHERVILLE    CLOUDY    59  55  87 CALM      30.18F
FORT DODGE *   CLOUDY    59  54  82 E3        30.18S
MASON CITY     CLOUDY    60  55  83 NE6       30.19F
FOREST CITY *  CLOUDY    59  54  82 CALM      30.18S
WEBSTER CITY * CLOUDY    61  57  88 CALM      30.15F
IOWA FALLS *   CLOUDY    60  56  87 NE3       30.17F
$$

IAZ007>011-017>019-026>030-037>042-050>054-066-010600-
   NORTHEAST IOWA

CITY           SKY/WX    TMP DP  RH WIND       PRES   REMARKS
CEDAR RAPIDS   CLOUDY    60  59  96 N6        30.11F
CHARLES CITY * CLOUDY    61  57  88 NE6       30.17F
CLINTON *      CLOUDY    60  58  92 N7        30.09F
DECORAH *      CLOUDY    57  57 100 CALM      30.15F
DUBUQUE        CLOUDY    58  58 100 N6        30.12F
MONTICELLO *   CLOUDY    61  57  88 VRB3      30.11F
OELWEIN *      MOCLDY    59  57  94 NE7       30.15F
WATERLOO       CLOUDY    56  54  93 N5        30.14F
$$

IAZ064-065-067-068-078-010600-
   EAST CENTRAL IOWA

CITY           SKY/WX    TMP DP  RH WIND       PRES   REMARKS
DAVENPORT      CLOUDY    60  57  89 N8        30.09F
IOWA CITY      CLOUDY    61  57  87 N7        30.12F
MT. PLEASANT * CLOUDY    62  62 100 N8        30.10F
MUSCATINE *    CLOUDY    61  57  88 CALM      30.09F
QUAD CITIES    CLOUDY    62  58  86 N7        30.08F
$$

IAZ062-063-075>077-085>089-095>099-010600-
   SOUTHEAST IOWA

CITY           SKY/WX    TMP DP  RH WIND       PRES   REMARKS
BURLINGTON     CLOUDY    59  59 100 N7        30.08F
FAIRFIELD *    CLOUDY    61  55  82 N6        30.11S
FORT MADISON *   N/A     61  57  88 N5        30.10S
KEOKUK *       CLOUDY    61  59  94 NW6       30.08F
OSKALOOSA *    CLOUDY    59  56  89 N5        30.12F
OTTUMWA        CLOUDY    61  56  83 N6        30.12F
WASHINGTON *     N/A    N/A N/A N/A MISG        N/A
$$

ABBREVIATIONS USED IN REMARKS
   TC - TEMPERATURES IN CELSIUS
  WCI - WIND CHILL INDEX
   HX - HEAT INDEX
  VSB - VISIBILITY
$$





USA.gov is the U.S. government's official web portal to all federal, state and local government web resources and services.